Ludington, MI

7:11 PM EST on November 18, 2019 (GMT -0500)
Mason County

Weather History for KLDM - October, 2019

Change the Weather History Date:

Saturday, October 19, 2019

  Actual Average Record
Temperature  
Mean Temperature 52 °F -  
Max Temperature 63 °F 55 °F 76 °F (1971)
Min Temperature 41 °F 39 °F 23 °F (1974)
Degree Days  
Heating Degree Days 13    
Growing Degree Days 2 (Base 50)    
Moisture  
Dew Point 41 °F    
Average Humidity 69    
Maximum Humidity 88    
Minimum Humidity 44    
Precipitation  
Precipitation 0.00 in - - ()
Sea Level Pressure  
Sea Level Pressure 29.83 in    
Wind  
Wind Speed 6 mph (SSE)    
Max Wind Speed 14 mph    
Max Gust Speed 21 mph    
Visibility 10 miles    
Events      
Averages and records for this station are not official NWS values.
T = Trace of Precipitation, MM = Missing Value Source: NWS Daily Summary

Daily Weather History Graph

Daily Weather History Graph

Search for Another Location

Airport or City:

Astronomy

Oct. 19, 2019 Rise Set
Actual Time 8:04 AM EDT 6:55 PM EDT
Civil Twilight 7:35 AM EDT 7:24 PM EDT
Nautical Twilight 7:02 AM EDT 7:58 PM EDT
Astronomical Twilight 6:28 AM EDT 8:31 PM EDT
Moon 10:55 PM EDT 1:45 PM EDT
Length of Visible Light 11h 49m
Length of Day
10h 50m
Waning Gibbous, 70% of the Moon is Illuminated
Oct 19
Waning Gibbous
Oct 21
Last Quarter
Oct 27
New
Nov 4
First Quarter
Nov 12
Full

Hourly Weather History & Observations

Time (EDT) Temp. Windchill Dew Point Humidity Pressure Visibility Wind Dir Wind Speed Gust Speed Precip Events Conditions
12:18 AM 42.1 °F 39.2 °F 38.7 °F 88% 29.93 in 10.0 mi SE 4.6 mph - N/A   Clear
12:35 AM 41.9 °F 39.0 °F 38.5 °F 88% 29.93 in 10.0 mi SE 4.6 mph - N/A   Clear
12:55 AM 42.4 °F 39.6 °F 38.5 °F 86% 29.93 in 10.0 mi SE 4.6 mph - N/A   Clear
12:56 AM 42.3 °F 39.4 °F 38.5 °F 86% 29.93 in 10.0 mi SE 4.6 mph - N/A   Clear
1:15 AM 42.6 °F 39.0 °F 38.3 °F 85% 29.93 in 10.0 mi SE 5.8 mph - N/A   Clear
1:39 AM 42.1 °F 39.2 °F 38.3 °F 86% 29.93 in 10.0 mi SE 4.6 mph - N/A   Clear
1:57 AM 41.5 °F 38.6 °F 37.9 °F 87% 29.92 in 10.0 mi ESE 4.6 mph - N/A   Clear
2:15 AM 42.3 °F 38.6 °F 38.5 °F 86% 29.92 in 10.0 mi SE 5.8 mph - N/A   Clear
2:16 AM 42.3 °F 39.4 °F 38.5 °F 86% 29.92 in 10.0 mi SE 4.6 mph - N/A   Clear
2:35 AM 42.4 °F 38.8 °F 38.3 °F 85% 29.91 in 10.0 mi SE 5.8 mph - N/A   Clear
2:36 AM 42.4 °F 38.1 °F 38.3 °F 85% 29.91 in 10.0 mi SE 6.9 mph - N/A   Clear
2:55 AM 42.3 °F 37.9 °F 38.3 °F 86% 29.91 in 10.0 mi SE 6.9 mph - N/A   Clear
3:18 AM 41.9 °F 38.2 °F 38.1 °F 86% 29.90 in 10.0 mi SE 5.8 mph - N/A   Clear
3:36 AM 42.4 °F 38.8 °F 38.1 °F 85% 29.90 in 10.0 mi SE 5.8 mph - N/A   Clear
3:55 AM 42.8 °F 39.3 °F 37.9 °F 83% 29.90 in 10.0 mi SE 5.8 mph - N/A   Clear
3:56 AM 42.8 °F 39.3 °F 37.8 °F 82% 29.90 in 10.0 mi SE 5.8 mph - N/A   Clear
4:15 AM 43.0 °F 39.5 °F 37.6 °F 81% 29.90 in 10.0 mi SSE 5.8 mph - N/A   Clear
4:39 AM 43.5 °F 40.1 °F 37.6 °F 80% 29.90 in 10.0 mi SE 5.8 mph - N/A   Clear
4:57 AM 43.2 °F 39.7 °F 37.6 °F 81% 29.90 in 10.0 mi SE 5.8 mph - N/A   Clear
5:15 AM 42.8 °F 39.3 °F 37.6 °F 82% 29.90 in 10.0 mi SE 5.8 mph - N/A   Clear
5:16 AM 42.8 °F 39.3 °F 37.6 °F 82% 29.90 in 10.0 mi SE 5.8 mph - N/A   Clear
5:35 AM 43.5 °F 39.4 °F 37.6 °F 80% 29.90 in 10.0 mi SSE 6.9 mph - N/A   Clear
5:55 AM 43.0 °F 38.8 °F 37.6 °F 81% 29.90 in 10.0 mi SSE 6.9 mph - N/A   Clear
6:18 AM 43.0 °F 39.5 °F 37.6 °F 81% 29.90 in 10.0 mi SE 5.8 mph - N/A   Clear
6:36 AM 42.6 °F 38.4 °F 37.6 °F 82% 29.89 in 10.0 mi SE 6.9 mph - N/A   Clear
6:56 AM 43.5 °F 39.4 °F 37.8 °F 80% 29.90 in 10.0 mi SSE 6.9 mph - N/A   Clear
7:15 AM 43.7 °F 40.3 °F 37.6 °F 79% 29.89 in 10.0 mi SSE 5.8 mph - N/A   Clear
7:16 AM 43.7 °F 40.3 °F 37.6 °F 79% 29.89 in 10.0 mi SSE 5.8 mph - N/A   Clear
7:39 AM 43.7 °F 39.1 °F 37.6 °F 79% 29.89 in 10.0 mi SE 8.1 mph - N/A   Clear
7:57 AM 44.1 °F 40.8 °F 37.8 °F 78% 29.88 in 10.0 mi SE 5.8 mph - N/A   Clear
8:15 AM 42.8 °F 40.1 °F 37.8 °F 82% 29.89 in 10.0 mi SE 4.6 mph - N/A   Clear
8:35 AM 43.3 °F 39.9 °F 38.5 °F 83% 29.88 in 10.0 mi SSE 5.8 mph - N/A   Clear
8:36 AM 43.5 °F 40.1 °F 38.5 °F 82% 29.88 in 10.0 mi SE 5.8 mph - N/A   Clear
8:55 AM 43.7 °F 40.3 °F 38.5 °F 82% 29.88 in 10.0 mi ESE 5.8 mph - N/A   Clear
8:59 AM 43.9 °F 40.5 °F 38.7 °F 82% 29.88 in 10.0 mi SE 5.8 mph - N/A   Clear
9:17 AM 44.6 °F 41.4 °F 39.4 °F 82% 29.88 in 10.0 mi SE 5.8 mph - N/A   Clear
9:35 AM 46.0 °F 43.9 °F 40.1 °F 80% 29.87 in 10.0 mi SE 4.6 mph - N/A   Clear
9:55 AM 47.5 °F - 40.3 °F 76% 29.87 in 10.0 mi SE 4.6 mph - N/A   Clear
10:15 AM 48.2 °F - 40.3 °F 74% 29.87 in 10.0 mi SSE 5.8 mph - N/A   Clear
10:20 AM 48.2 °F - 40.3 °F 74% 29.86 in 10.0 mi SSE 6.9 mph - N/A   Clear
10:38 AM 48.9 °F - 40.6 °F 73% 29.86 in 10.0 mi SSE 9.2 mph - N/A   Clear
10:56 AM 50.0 °F - 40.8 °F 71% 29.85 in 10.0 mi SSE 6.9 mph - N/A   Clear
11:15 AM 50.5 °F - 41.2 °F 70% 29.85 in 10.0 mi SSE 8.1 mph - N/A   Clear
11:35 AM 52.0 °F - 41.9 °F 69% 29.85 in 10.0 mi SSE 6.9 mph - N/A   Clear
11:59 AM 52.9 °F - 42.3 °F 67% 29.84 in 10.0 mi South 11.5 mph 16.1 mph N/A   Clear
12:17 PM 54.0 °F - 42.6 °F 65% 29.84 in 10.0 mi South 9.2 mph - N/A   Clear
12:35 PM 55.0 °F - 43.0 °F 64% 29.83 in 10.0 mi SSE 11.5 mph - N/A   Clear
12:36 PM 55.2 °F - 43.0 °F 63% 29.83 in 10.0 mi SSE 11.5 mph - N/A   Clear
12:55 PM 56.7 °F - 43.2 °F 61% 29.83 in 10.0 mi South 10.4 mph 16.1 mph N/A   Clear
1:15 PM 57.2 °F - 43.3 °F 60% 29.82 in 10.0 mi SSE 9.2 mph - N/A   Clear
1:38 PM 58.8 °F - 44.1 °F 58% 29.81 in 10.0 mi South 11.5 mph 16.1 mph N/A   Clear
1:56 PM 59.9 °F - 43.9 °F 55% 29.80 in 10.0 mi South 12.7 mph - N/A   Clear
2:15 PM 59.7 °F - 43.0 °F 54% 29.79 in 10.0 mi South 9.2 mph - N/A   Clear
2:16 PM 59.7 °F - 43.2 °F 54% 29.79 in 10.0 mi South 9.2 mph - N/A   Clear
2:35 PM 61.0 °F - 43.2 °F 52% 29.78 in 10.0 mi South 13.8 mph - N/A   Clear
2:36 PM 61.0 °F - 43.0 °F 52% 29.78 in 10.0 mi South 13.8 mph - N/A   Clear
2:59 PM 62.8 °F - 43.9 °F 50% 29.77 in 10.0 mi South 10.4 mph - N/A   Clear
3:17 PM 61.7 °F - 42.3 °F 49% 29.77 in 10.0 mi South 10.4 mph - N/A   Clear
3:35 PM 63.3 °F - 40.8 °F 44% 29.76 in 10.0 mi South 12.7 mph 20.7 mph N/A   Clear
3:36 PM 63.3 °F - 41.2 °F 44% 29.76 in 10.0 mi South 11.5 mph 20.7 mph N/A   Clear
3:55 PM 62.8 °F - 41.4 °F 45% 29.75 in 10.0 mi SSE 11.5 mph 17.3 mph N/A   Clear
3:56 PM 62.8 °F - 41.5 °F 46% 29.75 in 10.0 mi SSE 10.4 mph 17.3 mph N/A   Clear
4:15 PM 61.9 °F - 42.3 °F 49% 29.75 in 10.0 mi SSE 11.5 mph - N/A   Clear
4:20 PM 61.9 °F - 42.1 °F 48% 29.75 in 10.0 mi South 12.7 mph - N/A   Clear
4:38 PM 63.1 °F - 42.6 °F 47% 29.75 in 10.0 mi South 11.5 mph - N/A   Clear
4:56 PM 62.4 °F - 42.4 °F 48% 29.75 in 10.0 mi SSE 9.2 mph 16.1 mph N/A   Clear
5:15 PM 62.1 °F - 42.3 °F 48% 29.75 in 10.0 mi SSE 12.7 mph 17.3 mph N/A   Clear
5:36 PM 62.6 °F - 43.2 °F 49% 29.74 in 10.0 mi SSE 8.1 mph - N/A   Clear
5:58 PM 61.3 °F - 43.2 °F 51% 29.74 in 10.0 mi SSE 6.9 mph - N/A   Clear
6:17 PM 59.5 °F - 43.5 °F 55% 29.75 in 10.0 mi SSE 4.6 mph - N/A   Clear
6:35 PM 58.3 °F - 44.1 °F 59% 29.76 in 10.0 mi SSE 5.8 mph - N/A   Clear
6:55 PM 57.4 °F - 43.7 °F 60% 29.76 in 10.0 mi South 4.6 mph - N/A   Clear
6:56 PM 57.4 °F - 43.7 °F 60% 29.76 in 10.0 mi SSE 4.6 mph - N/A   Clear
7:15 PM 56.7 °F - 43.7 °F 62% 29.76 in 10.0 mi SSE 5.8 mph - N/A   Clear
7:19 PM 56.5 °F - 43.7 °F 62% 29.76 in 10.0 mi SSE 5.8 mph - N/A   Clear
7:38 PM 56.1 °F - 43.3 °F 62% 29.76 in 10.0 mi SSE 3.5 mph - N/A   Clear
7:56 PM 54.5 °F - 43.7 °F 67% 29.76 in 10.0 mi SSE 4.6 mph - N/A   Clear
8:15 PM 53.8 °F - 43.7 °F 69% 29.76 in 10.0 mi SE 4.6 mph - N/A   Clear
8:35 PM 53.6 °F - 43.9 °F 70% 29.76 in 10.0 mi SE 4.6 mph - N/A   Clear
8:36 PM 53.6 °F - 43.7 °F 69% 29.76 in 10.0 mi SE 4.6 mph - N/A   Clear
8:59 PM 53.8 °F - 43.7 °F 69% 29.75 in 10.0 mi SE 4.6 mph - N/A   Clear
9:17 PM 54.1 °F - 43.5 °F 67% 29.75 in 10.0 mi SE 4.6 mph - N/A   Clear
9:35 PM 54.5 °F - 43.7 °F 67% 29.75 in 10.0 mi SE 6.9 mph - N/A   Mostly Cloudy
9:55 PM 54.5 °F - 43.7 °F 67% 29.75 in 10.0 mi SE 5.8 mph - N/A   Overcast
9:56 PM 54.5 °F - 43.5 °F 66% 29.75 in 10.0 mi SE 4.6 mph - N/A   Overcast
10:15 PM 54.5 °F - 43.7 °F 67% 29.74 in 10.0 mi SE 4.6 mph - N/A   Overcast
10:20 PM 54.5 °F - 43.7 °F 67% 29.74 in 10.0 mi SE 5.8 mph - N/A   Overcast
10:38 PM 54.7 °F - 43.7 °F 66% 29.74 in 10.0 mi SE 4.6 mph - N/A   Overcast
10:56 PM 54.5 °F - 43.3 °F 66% 29.74 in 10.0 mi SE 4.6 mph - N/A   Overcast
11:15 PM 54.7 °F - 43.3 °F 66% 29.74 in 10.0 mi SE 5.8 mph - N/A   Overcast
11:35 PM 54.5 °F - 43.2 °F 66% 29.74 in 10.0 mi SE 5.8 mph - N/A   Overcast
11:59 PM 54.1 °F - 43.0 °F 66% 29.74 in 10.0 mi ESE 5.8 mph - N/A   Scattered Clouds